KINEIS-3C

Last updated on Mon Dec 15 2025 00:02:49 GMT+0000 (Coordinated Universal Time)

1 61220U 24172A 25348.21837405 .00003131 00000+0 50275-3 0 9998 2 61220 98.0277 75.2806 0001832 45.8427 314.2930 14.72336753 65855
UTC large
Height (km)
Speed (km/s)
/
Latitude / Longitude
Inclination (degrees)
Orbital Period (minutes)
Azimuth
Elevation
Range (km)
Doppler Factor

Next 0 passes for location: London (51.5072 / 0.1276)

Sorry there are no passes over London.